#timestamp,LO_Frequency,Hit,StdDev 
1457136015.1,286047007.2,N
1457136035.9,286047008.4,N
1457136055.7,286047011.4,N
1457136075.5,286047011.3,N
1457136095.3,286047013.9,N
1457136115.2,286047014.3,N
1457136135.0,286047018.7,N
1457136135.9,286047018.7,N
1457136155.7,286047019.8,N
1457136175.6,286047021.8,N
1457136195.4,286047025.0,N
1457136215.2,286047025.0,N
1457136235.1,286047023.1,N
1457136236.0,286047023.1,N
1457136255.8,286047023.3,N
1457136275.6,286047023.5,N
1457136295.5,286047023.4,N
1457136315.3,286047027.2,N
1457136335.1,286047027.5,N
1457136355.9,286047029.2,N
1457136375.7,286047029.9,N
1457136395.5,286047028.8,N
1457136415.3,286047032.3,N
1457136435.2,286047034.5,Y
1457136455.0,286047014.4,P
1457136455.9,286047014.4,P
1457136475.8,286047015.2,P
1457136495.6,286047010.9,Y
1457136515.4,286046998.0,P
1457136535.3,286046998.4,N
1457136555.1,286047000.8,N
1457136556.0,286047000.8,N
1457136575.8,286047002.2,N
1457136595.6,286047002.3,N
1457136615.5,286047003.7,N
1457136635.3,286047005.5,N
1457136655.1,286047008.6,N
1457136675.9,286047010.5,N
1457136695.7,286047008.2,N
1457136715.5,286047010.4,N
1457136735.4,286047008.1,N
1457136755.2,286047009.9,N
1457136775.0,286047010.3,N
1457136775.9,286047010.3,N
1457136795.8,286047010.4,N
1457136815.6,286047006.1,N
1457136835.4,286047006.2,N
1457136855.3,286047005.0,N
1457136875.1,286047003.0,N
1457136876.0,286047003.0,N
1457136895.8,286047007.0,N
1457136915.7,286047003.3,N
1457136935.5,286047005.0,N
1457136955.3,286047007.3,N
1457136975.1,286047005.0,N
1457136995.9,286047005.2,N
1457137015.7,286047005.6,N
1457137035.5,286047006.0,N
1457137055.4,286047004.0,N
1457137075.2,286047004.7,N
1457137095.0,286047006.5,N
1457137095.9,286047006.5,N
1457137115.8,286047007.1,N
1457137135.6,286047003.4,N
1457137155.4,286047005.7,N
1457137175.3,286047004.7,N
1457137195.1,286047006.0,N
1457137196.0,286047006.0,N
1457137215.8,286046999.9,N
1457137235.7,286047000.3,N
1457137255.5,286047000.6,N
1457137275.3,286047004.3,N
1457137295.1,286047003.3,N
1457137315.9,286047003.1,N
1457137335.7,286047003.5,N
1457137355.5,286047000.1,N
1457137375.4,286046998.1,N
1457137395.2,286046998.0,N
1457137415.0,286046994.1,N
1457137415.9,286046994.1,N
1457137435.8,286046994.8,N
1457137455.6,286046990.7,N
1457137475.4,286046993.0,N
1457137495.3,286046991.2,N
1457137515.1,286046991.4,N
1457137516.0,286046991.4,N
1457137535.8,286046988.7,N
1457137555.7,286046988.6,N
1457137575.5,286046989.9,N
1457137595.3,286046987.0,N
1457137615.2,286046989.5,N
1457137635.9,286046987.7,N
1457137655.7,286046986.5,N
1457137675.5,286046983.9,N
1457137695.4,286046985.6,N
1457137715.2,286046984.0,N
1457137735.0,286046980.7,N
1457137735.9,286046980.7,N
1457137755.8,286046980.9,N
1457137775.6,286046983.5,N
1457137795.4,286046983.6,N
1457137815.3,286046979.9,N
1457137835.1,286046982.4,N
1457137836.0,286046982.4,N
1457137855.8,286046982.2,N
1457137875.7,286046982.3,Y
1457137895.5,286046995.7,P
1457137915.3,286046993.9,N
1457137935.2,286046994.3,N
1457137955.9,286046993.4,N
1457137975.7,286046994.3,N
1457137995.6,286046993.8,N
1457138015.4,286046991.7,Y
1457138035.2,286047001.0,P
1457138055.1,286047000.1,N
1457138056.0,286047000.1,N
1457138075.8,286047002.3,N
1457138095.6,286046998.5,N
1457138115.5,286046998.1,N
1457138135.3,286047000.7,N
1457138155.1,286046997.0,N
1457138175.8,286046998.9,N
1457138195.7,286046999.3,N
1457138215.5,286046998.4,N
1457138235.3,286046997.0,N
1457138255.2,286046995.5,N
1457138275.9,286046997.9,N
1457138295.7,286046993.8,N
1457138315.6,286046993.8,N
1457138335.4,286046991.8,Y
1457138355.2,286046996.2,P
1457138375.1,286046994.3,P
1457138376.0,286046994.3,P
1457138395.8,286046994.5,Y
1457138415.6,286047001.0,P
1457138435.5,286046999.5,N
1457138455.3,286046998.2,N
1457138475.1,286046999.4,N
1457138495.9,286046999.4,N
1457138515.7,286046999.6,N
1457138535.5,286046998.5,N
1457138555.4,286046998.9,N
1457138575.2,286046996.8,N
1457138595.0,286046994.9,Y
1457138595.9,286046994.9,P
1457138615.8,286046998.3,N
1457138635.6,286047001.6,N
1457138655.4,286047000.5,N
1457138675.3,286047000.0,N
1457138695.1,286047002.1,N
1457138696.0,286047002.1,N
1457138715.8,286047001.1,N
1457138735.7,286046998.8,N
1457138755.5,286046998.1,N
1457138775.3,286046996.8,N
1457138795.1,286046996.5,N
1457138815.9,286046997.1,N
1457138835.7,286046996.5,N
1457138855.5,286046994.9,N
1457138875.4,286046995.3,N
1457138895.2,286046994.9,N
1457138915.0,286046992.0,Y
1457138915.9,286046992.0,P
1457138935.8,286046998.9,N
1457138955.6,286046995.1,N
1457138975.4,286046995.4,N
1457138995.3,286046998.2,N
1457139015.1,286046996.8,N
1457139016.0,286046996.8,N
1457139035.8,286046994.9,N
1457139055.7,286046996.4,N
1457139075.5,286046993.6,Y
1457139095.3,286047000.8,P
1457139115.2,286047000.5,N
1457139135.9,286046997.1,N
1457139155.7,286046996.9,N
1457139175.6,286046995.9,N
1457139195.4,286046995.4,N
1457139215.2,286046993.6,Y
1457139235.1,286046997.6,P
1457139236.0,286046997.6,P
1457139255.8,286046995.5,P
1457139275.6,286046997.5,N
1457139295.5,286046998.0,N
1457139315.3,286046996.3,Y
1457139335.1,286046995.6,P
1457139355.9,286046994.9,P
1457139375.7,286046999.1,N
1457139395.5,286046996.6,N
1457139415.3,286046996.8,N
1457139435.2,286046997.1,N
1457139455.0,286046999.2,N
1457139455.9,286046999.2,N
1457139475.8,286046995.4,Y
1457139495.6,286046998.6,P
1457139515.4,286047002.4,P
1457139535.2,286047001.9,N
1457139555.1,286046999.7,N
1457139556.0,286046999.7,N
1457139575.8,286047001.9,N
1457139595.6,286046999.7,N
